Regional Weather Roundup
Issued by NWS

Home | Current Version | Previous Version | Text Only | Print | Product List | Glossary On
Versions: 1 2 3 4 5 6 7 8 9 10 11 12 13 14 15 16 17 18 19 20 21 22 23 24 25 26 27 28 29 30 31 32 33 34 35 36 37 38 39 40 41 42 43 44 45 46 47 48 49 50
000
ASUS42 KFFC 281003
RWRGA
WEATHER ROUNDUP FOR GEORGIA
NATIONAL WEATHER SERVICE PEACHTREE CITY GA
600 AM EDT SAT MAR 28 2015

NOTE: "FAIR" INDICATES FEW OR NO CLOUDS BELOW 12,000 FEET WITH NO
SIGNIFICANT WEATHER AND/OR OBSTRUCTIONS TO VISIBILITY.

* = USE WITH CAUTION. THE STATIONS MARKED WITH AN ASTERISK MAY NOT
REPORT WEATHER SUCH AS PRECIPITATION, FOG, OR THUNDER AND ARE NOT
QUALITY CONTROLLED BY NWS.

THE REMARK "TC" DENOTES TEMPERATURE READING IN DEGREES CELSIUS.

GAZ001>058-281100-
NORTH GEORGIA

CITY           SKY/WX    TMP DP  RH WIND       PRES   REMARKS
ATLANTA        PTCLDY    37  29  72 NW9       30.04R WCI  30
ATHENS         CLEAR     37  26  64 NW7       30.00R WCI  32
CHAMBLEE       CLOUDY    37  24  59 NW17G24   30.04R WCI  27
PEACHTREE CITY CLEAR     38  32  79 NW9       30.06R WCI  31
ROME           CLEAR     35  23  61 N6        30.09R WCI  30
WEST ATLANTA   CLOUDY    38  28  67 NW8       30.05R WCI  32
GAINESVILLE    PTCLDY    35  23  61 NW9       30.01R WCI  28
CARTERSVILLE   MOCLDY    35  28  75 VRB3      30.09R


CITY           SKY/WX    TMP DP  RH WIND       PRES   REMARKS
DALTON*        PTCLDY    32  23  69 N12       30.09R WCI  23
MARIETTA       CLOUDY    37  26  65 NW12      30.05R WCI  29
$$

GAZ059>098-102>109-281100-
CENTRAL GEORGIA

CITY           SKY/WX    TMP DP  RH WIND       PRES   REMARKS
AUGUSTA-BUSH   CLEAR     39  31  72 NW7       30.00R WCI  34
AUGUSTA-DANIEL CLEAR     42  29  59 W7        30.00R
COLUMBUS       CLEAR     39  32  76 NW8       30.10R WCI  33
MACON          CLEAR     38  33  82 W6        30.05R WCI  33
ROBINS AFB     CLEAR     40  33  76 NW8       30.05R WCI  34


CITY           SKY/WX    TMP DP  RH WIND       PRES   REMARKS
LAGRANGE*      PTCLDY    41  38  91 NW7       30.08R
SYLVANIA*      CLEAR     43  35  74 NW7       30.00R
MILLEDGEVILLE* CLEAR     41  34  75 NW5       30.04R
$$

GAZ099>101-110>166-281100-
SOUTH GEORGIA

CITY           SKY/WX    TMP DP  RH WIND       PRES   REMARKS
SAVANNAH       CLEAR     45  37  73 NW6       30.00R
VALDOSTA       CLEAR     39  36  89 CALM      30.07R
ALMA           CLEAR     44  33  65 NW6       30.04R
ST SIMONS      CLEAR     47  35  63 W7        30.02R
FT STEWART     CLEAR     44  33  67 W7        30.00R
ALBANY         CLEAR     42  33  70 NW6       30.10R
HUNTER AFB     CLEAR     43  40  88 W8        29.98R
MOODY AFB      CLEAR     43  34  71 W6        30.05R
BRUNSWICK      CLEAR     45  36  70 W6        30.04R


CITY           SKY/WX    TMP DP  RH WIND       PRES   REMARKS
BAINBRIDGE*    CLEAR     45  37  76 NW6       30.11R
MOULTRIE*      CLEAR     43  37  81 W3        30.08R
VIDALIA*       CLEAR     45  34  65 W5        30.03R
WAYCROSS*      CLEAR     46  37  71 NW5       30.05R
DOUGLAS*       CLEAR     45  32  61 NW3       30.06S
$$



USA.gov is the U.S. government's official web portal to all federal, state and local government web resources and services.